Weather History for Baltimore Martin, MD

Change the Weather History Date:

Sunday, October 20, 2013

  Actual Average Record
Temperature  
Mean Temperature 54 °F -  
Max Temperature 64 °F 61 °F 73 °F (2007)
Min Temperature 44 °F 44 °F 37 °F (2008)
Degree Days  
Heating Degree Days 11    
Growing Degree Days 4 (Base 50)    
Moisture  
Dew Point 41 °F    
Average Humidity 66    
Maximum Humidity 93    
Minimum Humidity 34    
Precipitation  
Precipitation 0.00 in - - ()
Sea Level Pressure  
Sea Level Pressure 29.99 in    
Wind  
Wind Speed 10 mph (West)    
Max Wind Speed 22 mph    
Max Gust Speed 33 mph    
Visibility 10 miles    
Events      
Averages and records for this station are not official NWS values.
T = Trace of Precipitation, MM = Missing Value Source: NWS Daily Summary

Daily Weather History Graph

Daily Weather History Graph

Search for Another Location

Airport:

Trip Planner

Search our weather history database for the weather conditions in past years. The results will help you decide how hot, cold, wet, or windy it might be!

Date:

Astronomy

Oct. 20, 2013 Rise Set
Actual Time 7:20 AM EDT 6:19 PM EDT
Civil Twilight 6:53 AM EDT 6:46 PM EDT
Nautical Twilight 6:22 AM EDT 7:17 PM EDT
Astronomical Twilight 5:51 AM EDT 7:48 PM EDT
Moon 7:27 PM EDT (10/20) 8:55 AM EDT (10/20)
Length of Visible Light 11h 52m
Length of Day
10h 58m
Full, 97% of the Moon is Illuminated
Oct 20
Full
Oct 26
Last Quarter
Nov 3
New
Nov 10
First Quarter
Nov 17
Full

Hourly Weather History & Observations

Time (EDT) Temp. Windchill Dew Point Humidity Pressure Visibility Wind Dir Wind Speed Gust Speed Precip Events Conditions
12:00 AM 55.4 °F - 50.0 °F 82% 29.86 in 10.0 mi WSW 6.9 mph - N/A   Clear
12:18 AM 55.4 °F - 50.0 °F 82% 29.87 in 10.0 mi West 5.8 mph - N/A   Clear
12:39 AM 53.6 °F - 50.0 °F 88% 29.87 in 10.0 mi West 6.9 mph - N/A   Clear
1:00 AM 55.4 °F - 48.2 °F 77% 29.87 in 10.0 mi West 10.4 mph - N/A   Clear
1:18 AM 55.4 °F - 46.4 °F 72% 29.88 in 10.0 mi West 13.8 mph - N/A   Clear
1:39 AM 53.6 °F - 44.6 °F 72% 29.89 in 10.0 mi West 15.0 mph 21.9 mph N/A   Clear
2:00 AM 53.6 °F - 44.6 °F 72% 29.90 in 10.0 mi West 15.0 mph 20.7 mph N/A   Clear
2:18 AM 53.6 °F - 42.8 °F 67% 29.90 in 10.0 mi West 19.6 mph 25.3 mph N/A   Clear
2:39 AM 51.8 °F - 41.0 °F 67% 29.91 in 10.0 mi West 19.6 mph 23.0 mph N/A   Clear
3:00 AM 51.8 °F - 37.4 °F 58% 29.91 in 10.0 mi West 17.3 mph 26.5 mph N/A   Clear
3:18 AM 51.8 °F - 39.2 °F 62% 29.92 in 10.0 mi West 21.9 mph 33.4 mph N/A   Clear
3:39 AM 51.8 °F - 39.2 °F 62% 29.94 in 10.0 mi West 15.0 mph - N/A   Clear
4:00 AM 51.8 °F - 37.4 °F 58% 29.94 in 10.0 mi West 19.6 mph 23.0 mph N/A   Clear
4:18 AM 50.0 °F - 37.4 °F 62% 29.95 in 10.0 mi West 15.0 mph 20.7 mph N/A   Clear
4:39 AM 50.0 °F - 37.4 °F 62% 29.95 in 10.0 mi West 17.3 mph 23.0 mph N/A   Clear
5:00 AM 50.0 °F - 37.4 °F 62% 29.97 in 10.0 mi West 12.7 mph 21.9 mph N/A   Clear
5:18 AM 50.0 °F - 37.4 °F 62% 29.97 in 10.0 mi West 9.2 mph - N/A   Clear
5:30 AM 50.0 °F - 37.4 °F 62% 29.98 in 10.0 mi WSW 8.1 mph - N/A   Clear
5:55 AM 48.2 °F - 37.4 °F 66% 29.99 in 10.0 mi West 10.4 mph - N/A   Scattered Clouds
6:55 AM 44.6 °F 39.7 °F 39.2 °F 81% 29.99 in 10.0 mi West 9.2 mph - N/A   Scattered Clouds
7:45 AM 48.2 °F - 37.4 °F 66% 30.00 in 10.0 mi WNW 10.4 mph - N/A   Clear
8:55 AM 51.8 °F - 39.2 °F 62% 30.04 in 10.0 mi West 9.2 mph - N/A   Clear
9:50 AM 55.4 °F - 39.2 °F 54% 30.06 in 10.0 mi West 8.1 mph - N/A   Clear
10:45 AM 57.2 °F - 39.2 °F 51% 30.06 in 10.0 mi West 6.9 mph - N/A   Clear
11:45 AM 60.8 °F - 39.2 °F 45% 30.07 in 10.0 mi West 13.8 mph 17.3 mph N/A   Clear
12:50 PM 60.8 °F - 37.4 °F 42% 30.05 in 10.0 mi NW 11.5 mph 20.7 mph N/A   Clear
1:45 PM 62.6 °F - 37.4 °F 39% 30.05 in 10.0 mi WSW 10.4 mph 16.1 mph N/A   Clear
2:45 PM 64.4 °F - 35.6 °F 34% 30.03 in 10.0 mi WNW 10.4 mph 17.3 mph N/A   Clear
3:45 PM 62.6 °F - 35.6 °F 37% 30.03 in 10.0 mi West 11.5 mph 17.3 mph N/A   Clear
4:55 PM 62.6 °F - 35.6 °F 37% 30.04 in 10.0 mi West 9.2 mph - N/A   Clear
5:55 PM 59.0 °F - 39.2 °F 48% 30.05 in 10.0 mi Calm Calm - N/A   Clear
6:55 PM 53.6 °F - 41.0 °F 62% 30.07 in 10.0 mi Calm Calm - N/A   Clear
7:45 PM 51.8 °F - 42.8 °F 71% 30.08 in 10.0 mi Calm Calm - N/A   Clear
10:21 PM 46.4 °F - 44.6 °F 93% 30.11 in 10.0 mi Calm Calm - N/A   Clear
10:42 PM 44.6 °F - 42.8 °F 93% 30.11 in 10.0 mi Calm Calm - N/A   Clear
11:00 PM 44.6 °F - 42.8 °F 93% 30.11 in 10.0 mi Calm Calm - N/A   Clear
11:21 PM 44.6 °F - 42.8 °F 93% 30.11 in 10.0 mi Calm Calm - N/A   Clear
11:42 PM 44.6 °F - 42.8 °F 93% 30.12 in 10.0 mi Calm Calm - N/A   Clear